SBI1673 ULLI-ULMM

Flight info

Callsign SBI1673
Flight time 1h 27m
Altitude 35000
Route PETAP1A PETAP T457 LULOR/K0841F340 T693 ASGOR ASGOR1C
Aircraft A321/M-SDE3FGHIRWY/LB1

Departure

Time 2026-04-26 14:37
Airport Pulkovo Airport (ULLI)

Arrival

Time 2026-04-26 16:04
Airport Emperor Nicholas II Murmansk Airport (ULMM)
Time Latitude Longitude Altitude Speed Heading
2026-04-26 13:57 59.79812 30.26297 86 ft 0 kts 285°
2026-04-26 14:09 59.79812 30.26298 81 ft 0 kts 285°
2026-04-26 14:19 59.79819 30.26247 83 ft 12 kts 285°
2026-04-26 14:20 59.79865 30.26184 82 ft 7 kts 15°
2026-04-26 14:20 59.79945 30.26223 81 ft 19 kts 15°
2026-04-26 14:20 59.80080 30.26301 72 ft 19 kts 16°
2026-04-26 14:20 59.80201 30.26373 77 ft 17 kts 16°
2026-04-26 14:21 59.80326 30.26438 67 ft 22 kts
2026-04-26 14:21 59.80433 30.26471 67 ft 14 kts 354°
2026-04-26 14:21 59.80474 30.26316 75 ft 17 kts 286°
2026-04-26 14:21 59.80524 30.26025 70 ft 24 kts 286°
2026-04-26 14:22 59.80567 30.25732 72 ft 21 kts 287°
2026-04-26 14:22 59.80586 30.25604 73 ft 0 kts 287°
2026-04-26 14:24 59.80589 30.25585 66 ft 7 kts 284°
2026-04-26 14:24 59.80617 30.25386 72 ft 22 kts 286°
2026-04-26 14:24 59.80657 30.25115 75 ft 19 kts 286°
2026-04-26 14:25 59.80691 30.24890 73 ft 15 kts 287°
2026-04-26 14:25 59.80722 30.24689 67 ft 15 kts 289°
2026-04-26 14:25 59.80796 30.24595 68 ft 12 kts 346°
2026-04-26 14:25 59.80811 30.24587 72 ft 0 kts 346°
2026-04-26 14:26 59.80822 30.24582 71 ft 8 kts 346°
2026-04-26 14:26 59.80937 30.24572 68 ft 18 kts 33°
2026-04-26 14:26 59.80954 30.24687 69 ft 8 kts 112°
2026-04-26 14:27 59.80920 30.24902 67 ft 26 kts 106°
2026-04-26 14:27 59.80855 30.25348 74 ft 41 kts 107°
2026-04-26 14:27 59.80782 30.25846 75 ft 32 kts 106°
2026-04-26 14:27 59.80723 30.26235 74 ft 28 kts 107°
2026-04-26 14:28 59.80667 30.26563 67 ft 23 kts 127°
2026-04-26 14:28 59.80571 30.26616 66 ft 12 kts 195°
2026-04-26 14:28 59.80521 30.26590 75 ft 0 kts 195°
2026-04-26 14:29 59.80520 30.26589 75 ft 1 kts 195°
2026-04-26 14:29 59.80452 30.26594 71 ft 16 kts 147°
2026-04-26 14:29 59.80413 30.26770 70 ft 16 kts 107°
2026-04-26 14:30 59.80366 30.27078 70 ft 28 kts 107°
2026-04-26 14:30 59.80316 30.27414 68 ft 24 kts 106°
2026-04-26 14:30 59.80274 30.27700 67 ft 19 kts 106°
2026-04-26 14:30 59.80231 30.27987 66 ft 25 kts 107°
2026-04-26 14:31 59.80179 30.28344 75 ft 25 kts 107°
2026-04-26 14:31 59.80131 30.28660 75 ft 24 kts 107°
2026-04-26 14:31 59.80083 30.28983 70 ft 23 kts 106°
2026-04-26 14:31 59.80042 30.29257 69 ft 18 kts 106°
2026-04-26 14:32 59.80010 30.29470 67 ft 14 kts 107°
2026-04-26 14:32 59.79985 30.29638 70 ft 16 kts 106°
2026-04-26 14:32 59.79949 30.29876 71 ft 17 kts 107°
2026-04-26 14:32 59.79960 30.30060 64 ft 12 kts 53°
2026-04-26 14:33 59.79999 30.30146 71 ft 0 kts 47°
2026-04-26 14:35 59.80002 30.30154 70 ft 5 kts 47°
2026-04-26 14:36 59.80067 30.30274 69 ft 18 kts 34°
2026-04-26 14:36 59.80120 30.30279 69 ft 2 kts 290°
2026-04-26 14:36 59.80125 30.30245 70 ft 9 kts 288°
2026-04-26 14:36 59.80208 30.29709 69 ft 79 kts 287°
2026-04-26 14:37 59.80421 30.28299 68 ft 132 kts 287°
2026-04-26 14:37 59.80745 30.26313 169 ft 163 kts 290°
2026-04-26 14:37 59.81028 30.24209 955 ft 155 kts 291°
2026-04-26 14:37 59.81319 30.22154 1683 ft 154 kts 296°
2026-04-26 14:38 59.81636 30.20042 2146 ft 168 kts 298°
2026-04-26 14:38 59.82002 30.17680 2415 ft 190 kts 298°
2026-04-26 14:38 59.82420 30.14990 2685 ft 217 kts 297°
2026-04-26 14:38 59.82722 30.13024 2972 ft 232 kts 296°
2026-04-26 14:39 59.83349 30.08784 3948 ft 245 kts 296°
2026-04-26 14:39 59.83827 30.05481 4716 ft 252 kts 295°
2026-04-26 14:39 59.84312 30.02101 5509 ft 256 kts 293°
2026-04-26 14:39 59.84814 29.98664 6274 ft 260 kts 296°
2026-04-26 14:40 59.85649 29.95593 6996 ft 255 kts 309°
2026-04-26 14:40 59.86635 29.92637 7789 ft 258 kts 310°
2026-04-26 14:40 59.87638 29.89641 8372 ft 262 kts 309°
2026-04-26 14:40 59.88647 29.86618 8493 ft 262 kts 309°
2026-04-26 14:41 59.89656 29.83594 8522 ft 262 kts 309°
2026-04-26 14:41 59.90666 29.80581 8522 ft 261 kts 311°
2026-04-26 14:41 59.91902 29.78027 8538 ft 253 kts 328°
2026-04-26 14:41 59.93466 29.76432 9040 ft 253 kts 345°
2026-04-26 14:42 59.95192 29.75830 9814 ft 253 kts
2026-04-26 14:42 59.97001 29.75970 10186 ft 271 kts
2026-04-26 14:42 59.98964 29.76187 10358 ft 294 kts
2026-04-26 14:42 60.01057 29.76430 10771 ft 306 kts
2026-04-26 14:43 60.03201 29.76683 11378 ft 311 kts
2026-04-26 14:43 60.05347 29.76934 11534 ft 313 kts
2026-04-26 14:43 60.07523 29.77188 11558 ft 313 kts
2026-04-26 14:43 60.09695 29.77443 11561 ft 313 kts
2026-04-26 14:44 60.11872 29.77696 11559 ft 313 kts
2026-04-26 14:44 60.14049 29.77945 11554 ft 313 kts
2026-04-26 14:44 60.16240 29.78196 11896 ft 317 kts
2026-04-26 14:44 60.18453 29.78447 12636 ft 319 kts
2026-04-26 14:45 60.20678 29.78697 13317 ft 322 kts
2026-04-26 14:45 60.22166 29.78865 13711 ft 324 kts
2026-04-26 14:45 60.25204 29.79213 14511 ft 329 kts
2026-04-26 14:45 60.27501 29.79477 15108 ft 332 kts
2026-04-26 14:46 60.29824 29.79745 15682 ft 336 kts
2026-04-26 14:46 60.32166 29.80024 16257 ft 339 kts
2026-04-26 14:46 60.34470 29.80860 16815 ft 343 kts 16°
2026-04-26 14:46 60.36711 29.82565 17374 ft 346 kts 22°
2026-04-26 14:47 60.38947 29.84455 17918 ft 350 kts 22°
2026-04-26 14:47 60.41208 29.86351 18396 ft 353 kts 22°
2026-04-26 14:47 60.43481 29.88258 18868 ft 355 kts 22°
2026-04-26 14:47 60.45773 29.90187 19321 ft 358 kts 22°
2026-04-26 14:48 60.48079 29.92130 19759 ft 360 kts 22°
2026-04-26 14:48 60.50403 29.94088 20200 ft 363 kts 22°
2026-04-26 14:48 60.52742 29.96065 20646 ft 365 kts 22°
2026-04-26 14:48 60.55100 29.98068 21072 ft 368 kts 22°
2026-04-26 14:49 60.57469 30.00084 21506 ft 371 kts 22°
2026-04-26 14:49 60.59857 30.02115 21952 ft 373 kts 22°
2026-04-26 14:49 60.62262 30.04167 22394 ft 376 kts 23°
2026-04-26 14:49 60.64651 30.06206 22840 ft 378 kts 23°
2026-04-26 14:50 60.67085 30.08287 23254 ft 381 kts 23°
2026-04-26 14:50 60.69536 30.10388 23620 ft 384 kts 23°
2026-04-26 14:50 60.72009 30.12509 23987 ft 387 kts 23°
2026-04-26 14:50 60.74494 30.14645 24341 ft 389 kts 23°
2026-04-26 14:51 60.77006 30.16807 24675 ft 392 kts 22°
2026-04-26 14:51 60.79528 30.18981 25010 ft 395 kts 22°
2026-04-26 14:51 60.82067 30.21172 25325 ft 398 kts 22°
2026-04-26 14:51 60.84631 30.23390 25644 ft 401 kts 22°
2026-04-26 14:52 60.87208 30.25623 25961 ft 403 kts 22°
2026-04-26 14:52 60.89805 30.27875 26267 ft 406 kts 22°
2026-04-26 14:52 60.92422 30.30149 26562 ft 409 kts 22°
2026-04-26 14:52 60.95022 30.32410 26845 ft 412 kts 22°
2026-04-26 14:53 60.97672 30.34718 27145 ft 414 kts 22°
2026-04-26 14:53 61.00336 30.37048 27420 ft 418 kts 22°
2026-04-26 14:53 61.03027 30.39413 27671 ft 421 kts 22°
2026-04-26 14:53 61.05734 30.41799 27942 ft 424 kts 22°
2026-04-26 14:54 61.08457 30.44199 28193 ft 427 kts 22°
2026-04-26 14:54 61.10270 30.45795 28358 ft 429 kts 22°
2026-04-26 14:54 61.13025 30.48218 28605 ft 431 kts 22°
2026-04-26 14:54 61.15795 30.50659 28843 ft 434 kts 22°
2026-04-26 14:55 61.18580 30.53116 29058 ft 437 kts 22°
2026-04-26 14:55 61.21384 30.55605 29276 ft 439 kts 22°
2026-04-26 14:55 61.24197 30.58114 29481 ft 441 kts 22°
2026-04-26 14:55 61.27027 30.60638 29661 ft 444 kts 21°
2026-04-26 14:56 61.29872 30.63171 29825 ft 445 kts 21°
2026-04-26 14:56 61.32723 30.65705 30052 ft 445 kts 21°
2026-04-26 14:56 61.35573 30.68239 30265 ft 446 kts 22°
2026-04-26 14:56 61.38424 30.70781 30466 ft 446 kts 22°
2026-04-26 14:57 61.41283 30.73341 30660 ft 447 kts 22°
2026-04-26 14:57 61.44142 30.75918 30870 ft 448 kts 22°
2026-04-26 14:57 61.47000 30.78496 31080 ft 448 kts 22°
2026-04-26 14:57 61.49870 30.81080 31286 ft 448 kts 22°
2026-04-26 14:58 61.52739 30.83663 31489 ft 449 kts 22°
2026-04-26 14:58 61.55612 30.86262 31687 ft 450 kts 22°
2026-04-26 14:58 61.58453 30.88843 31894 ft 450 kts 22°
2026-04-26 14:58 61.61367 30.91491 32098 ft 451 kts 22°
2026-04-26 14:59 61.64216 30.94082 32295 ft 452 kts 22°
2026-04-26 14:59 61.67102 30.96708 32491 ft 452 kts 22°
2026-04-26 14:59 61.69997 30.99353 32687 ft 452 kts 22°
2026-04-26 14:59 61.71911 31.01102 32817 ft 453 kts 22°
2026-04-26 15:00 61.75777 31.04656 33062 ft 453 kts 22°
2026-04-26 15:00 61.78670 31.07320 33247 ft 454 kts 22°
2026-04-26 15:00 61.81566 31.09992 33427 ft 454 kts 22°
2026-04-26 15:00 61.84466 31.12674 33592 ft 455 kts 22°
2026-04-26 15:01 61.87336 31.15334 33727 ft 455 kts 22°
2026-04-26 15:01 61.90237 31.18026 33861 ft 455 kts 22°
2026-04-26 15:01 61.93136 31.20719 33987 ft 456 kts 22°
2026-04-26 15:01 61.96040 31.23421 34106 ft 456 kts 22°
2026-04-26 15:02 61.98947 31.26133 34244 ft 456 kts 22°
2026-04-26 15:02 62.01853 31.28851 34366 ft 457 kts 22°
2026-04-26 15:02 62.04760 31.31576 34515 ft 456 kts 22°
2026-04-26 15:03 62.10567 31.37016 34600 ft 454 kts 22°
2026-04-26 15:03 62.16304 31.42429 34599 ft 453 kts 23°
2026-04-26 15:04 62.22070 31.47907 34608 ft 453 kts 23°
2026-04-26 15:04 62.27843 31.53402 34604 ft 453 kts 23°
2026-04-26 15:05 62.33609 31.58928 34608 ft 453 kts 23°
2026-04-26 15:05 62.39370 31.64459 34608 ft 454 kts 23°
2026-04-26 15:06 62.45134 31.70022 34608 ft 454 kts 23°
2026-04-26 15:06 62.50904 31.75602 34615 ft 454 kts 23°
2026-04-26 15:07 62.59512 31.83998 34612 ft 454 kts 23°
2026-04-26 15:07 62.65284 31.89636 34612 ft 454 kts 23°
2026-04-26 15:08 62.71064 31.95223 34614 ft 454 kts 19°
2026-04-26 15:08 62.77173 31.97971 34614 ft 451 kts
2026-04-26 15:09 62.83450 31.97739 34614 ft 451 kts 358°
2026-04-26 15:09 62.89739 31.97447 34622 ft 452 kts 358°
2026-04-26 15:10 62.94966 31.97221 34627 ft 452 kts 358°
2026-04-26 15:10 63.02278 31.96903 34636 ft 452 kts 358°
2026-04-26 15:11 63.08577 31.96618 34640 ft 452 kts 358°
2026-04-26 15:11 63.14868 31.96304 34644 ft 452 kts 358°
2026-04-26 15:12 63.21158 31.95988 34657 ft 452 kts 358°
2026-04-26 15:12 63.27455 31.95702 34659 ft 452 kts 358°
2026-04-26 15:13 63.33752 31.95441 34663 ft 453 kts 359°
2026-04-26 15:13 63.40056 31.95585 34668 ft 453 kts
2026-04-26 15:14 63.46319 31.96000 34666 ft 453 kts
2026-04-26 15:14 63.52626 31.96431 34676 ft 453 kts
2026-04-26 15:15 63.58939 31.96785 34678 ft 453 kts
2026-04-26 15:15 63.65261 31.97068 34684 ft 453 kts
2026-04-26 15:16 63.71564 31.97354 34689 ft 453 kts
2026-04-26 15:16 63.77831 31.97681 34690 ft 453 kts
2026-04-26 15:17 63.83079 31.97951 34692 ft 453 kts
2026-04-26 15:17 63.90450 31.98329 34691 ft 453 kts
2026-04-26 15:18 63.96757 31.98656 34704 ft 453 kts
2026-04-26 15:18 64.03065 31.98963 34704 ft 453 kts
2026-04-26 15:19 64.09377 31.99301 34707 ft 454 kts
2026-04-26 15:19 64.15701 31.99650 34714 ft 454 kts
2026-04-26 15:20 64.21974 31.99984 34716 ft 454 kts
2026-04-26 15:20 64.28285 32.00296 34719 ft 454 kts
2026-04-26 15:21 64.34596 32.00617 34726 ft 454 kts
2026-04-26 15:21 64.40909 32.00955 34726 ft 454 kts
2026-04-26 15:22 64.47221 32.01305 34733 ft 453 kts
2026-04-26 15:22 64.53526 32.01663 34736 ft 453 kts
2026-04-26 15:23 64.59840 32.02004 34741 ft 453 kts
2026-04-26 15:23 64.66160 32.02343 34742 ft 454 kts 360°
2026-04-26 15:24 64.72488 32.02657 34732 ft 458 kts 360°
2026-04-26 15:24 64.78914 32.03012 34737 ft 465 kts
2026-04-26 15:25 64.84316 32.03344 34735 ft 470 kts
2026-04-26 15:25 64.91976 32.03773 34742 ft 475 kts 360°
2026-04-26 15:26 64.98613 32.04124 34745 ft 477 kts
2026-04-26 15:26 65.05254 32.04490 34748 ft 477 kts
2026-04-26 15:27 65.11903 32.04860 34755 ft 478 kts 360°
2026-04-26 15:27 65.18547 32.05231 34764 ft 478 kts 360°
2026-04-26 15:28 65.25205 32.05636 34767 ft 478 kts
2026-04-26 15:28 65.31852 32.06015 34776 ft 478 kts 360°
2026-04-26 15:29 65.38511 32.06385 34779 ft 478 kts
2026-04-26 15:30 65.51792 32.07147 34789 ft 479 kts
2026-04-26 15:30 65.58464 32.07540 34792 ft 479 kts 360°
2026-04-26 15:31 65.68472 32.07999 34793 ft 479 kts 360°
2026-04-26 15:32 65.76274 32.08347 34797 ft 480 kts 360°
2026-04-26 15:32 65.85167 32.08756 34801 ft 480 kts 360°
2026-04-26 15:33 65.91805 32.09074 34796 ft 480 kts 360°
2026-04-26 15:33 65.98485 32.09405 34798 ft 480 kts
2026-04-26 15:34 66.05164 32.09735 34801 ft 480 kts 360°
2026-04-26 15:34 66.11845 32.10052 34800 ft 480 kts 360°
2026-04-26 15:35 66.18520 32.10396 34796 ft 480 kts 360°
2026-04-26 15:35 66.25196 32.10732 34796 ft 480 kts 360°
2026-04-26 15:36 66.31837 32.11058 34797 ft 480 kts 360°
2026-04-26 15:36 66.38521 32.11414 34800 ft 480 kts
2026-04-26 15:37 66.45087 32.14519 34798 ft 482 kts 12°
2026-04-26 15:37 66.51594 32.18515 34794 ft 482 kts 12°
2026-04-26 15:38 66.58109 32.22509 34796 ft 482 kts 12°
2026-04-26 15:38 66.64627 32.26538 34798 ft 482 kts 12°
2026-04-26 15:39 66.71147 32.30570 34799 ft 482 kts 12°
2026-04-26 15:39 66.75465 32.33252 34795 ft 482 kts 12°
2026-04-26 15:40 66.84137 32.38710 34696 ft 483 kts 12°
2026-04-26 15:40 66.87393 32.40772 34305 ft 479 kts 13°
2026-04-26 15:40 66.90622 32.42824 34082 ft 479 kts 12°
2026-04-26 15:41 66.93862 32.44874 33847 ft 480 kts 12°
2026-04-26 15:41 66.97124 32.46942 32914 ft 484 kts 13°
2026-04-26 15:41 67.00378 32.49007 32181 ft 480 kts 12°
2026-04-26 15:41 67.03598 32.51060 31712 ft 473 kts 13°
2026-04-26 15:42 67.06813 32.53119 31225 ft 476 kts 12°
2026-04-26 15:42 67.09983 32.55154 30651 ft 475 kts 12°
2026-04-26 15:42 67.13190 32.57221 30074 ft 475 kts 12°
2026-04-26 15:42 67.16389 32.59292 29413 ft 474 kts 12°
2026-04-26 15:43 67.19589 32.61372 28859 ft 474 kts 12°
2026-04-26 15:43 67.22782 32.63441 28276 ft 473 kts 13°
2026-04-26 15:43 67.29147 32.67569 27133 ft 470 kts 13°
2026-04-26 15:44 67.31253 32.68945 26779 ft 470 kts 13°
2026-04-26 15:44 67.37495 32.73064 25711 ft 466 kts 13°
2026-04-26 15:44 67.40668 32.75168 25179 ft 461 kts 13°
2026-04-26 15:45 67.47853 32.78280 24098 ft 438 kts 358°
2026-04-26 15:45 67.49884 32.78170 24010 ft 425 kts 358°
2026-04-26 15:46 67.55550 32.77949 23721 ft 391 kts 359°
2026-04-26 15:46 67.58240 32.77863 23321 ft 383 kts 359°
2026-04-26 15:46 67.60852 32.77785 22677 ft 377 kts 359°
2026-04-26 15:46 67.62621 32.77732 22229 ft 374 kts 359°
2026-04-26 15:47 67.66049 32.77616 21329 ft 369 kts 358°
2026-04-26 15:47 67.71135 32.77400 20042 ft 362 kts 358°
2026-04-26 15:47 67.73632 32.77298 19574 ft 355 kts 358°
2026-04-26 15:48 67.76078 32.77201 19151 ft 348 kts 358°
2026-04-26 15:48 67.78480 32.77108 18725 ft 342 kts 358°
2026-04-26 15:48 67.80842 32.77012 18311 ft 337 kts 358°
2026-04-26 15:48 67.83165 32.76915 17884 ft 332 kts 358°
2026-04-26 15:49 67.85454 32.76825 17464 ft 325 kts 358°
2026-04-26 15:49 67.87697 32.76740 17069 ft 319 kts 358°
2026-04-26 15:49 67.89899 32.76655 16690 ft 313 kts 358°
2026-04-26 15:49 67.92059 32.76577 16318 ft 308 kts 358°
2026-04-26 15:50 67.94181 32.76500 15948 ft 303 kts 358°
2026-04-26 15:50 67.96269 32.76420 15586 ft 297 kts 358°
2026-04-26 15:50 67.98324 32.76345 15232 ft 293 kts 358°
2026-04-26 15:50 68.00334 32.76285 14882 ft 292 kts 358°
2026-04-26 15:51 68.02362 32.76249 14525 ft 290 kts 358°
2026-04-26 15:51 68.04379 32.76228 14178 ft 289 kts 358°
2026-04-26 15:51 68.06382 32.76211 13820 ft 287 kts 358°
2026-04-26 15:51 68.08374 32.76186 13461 ft 286 kts 358°
2026-04-26 15:52 68.10358 32.76157 13083 ft 284 kts 358°
2026-04-26 15:52 68.12336 32.76129 12717 ft 283 kts 358°
2026-04-26 15:52 68.14295 32.76100 12368 ft 281 kts 358°
2026-04-26 15:52 68.15590 32.76082 12123 ft 280 kts 358°
2026-04-26 15:53 68.18184 32.76041 11651 ft 278 kts 358°
2026-04-26 15:53 68.20109 32.76014 11300 ft 276 kts 358°
2026-04-26 15:53 68.22029 32.75986 10947 ft 275 kts 358°
2026-04-26 15:53 68.23935 32.75956 10587 ft 273 kts 358°
2026-04-26 15:54 68.25809 32.75926 10240 ft 272 kts 358°
2026-04-26 15:54 68.27689 32.75891 9994 ft 269 kts 358°
2026-04-26 15:54 68.29570 32.75856 9914 ft 270 kts 358°
2026-04-26 15:54 68.31446 32.75827 9797 ft 270 kts 358°
2026-04-26 15:55 68.33330 32.75801 9531 ft 271 kts 358°
2026-04-26 15:55 68.35204 32.75777 9133 ft 267 kts 358°
2026-04-26 15:55 68.37055 32.75749 8794 ft 265 kts 358°
2026-04-26 15:55 68.38893 32.75719 8457 ft 263 kts 358°
2026-04-26 15:56 68.40724 32.75688 8109 ft 262 kts 358°
2026-04-26 15:56 68.42538 32.75660 7773 ft 260 kts 358°
2026-04-26 15:56 68.44340 32.75757 7432 ft 258 kts 360°
2026-04-26 15:56 68.46129 32.75951 7101 ft 255 kts
2026-04-26 15:57 68.47862 32.76170 6770 ft 250 kts
2026-04-26 15:57 68.49586 32.76391 6469 ft 245 kts
2026-04-26 15:57 68.51224 32.77147 6317 ft 236 kts 16°
2026-04-26 15:57 68.52227 32.78346 6153 ft 232 kts 26°
2026-04-26 15:58 68.53900 32.81851 5732 ft 225 kts 36°
2026-04-26 15:58 68.55071 32.84582 5443 ft 218 kts 36°
2026-04-26 15:58 68.56210 32.87237 5159 ft 213 kts 36°
2026-04-26 15:58 68.57324 32.89839 4876 ft 208 kts 36°
2026-04-26 15:59 68.58422 32.92397 4598 ft 206 kts 36°
2026-04-26 15:59 68.59513 32.94942 4325 ft 206 kts 36°
2026-04-26 15:59 68.60598 32.97484 4048 ft 205 kts 36°
2026-04-26 15:59 68.61700 32.99936 3769 ft 202 kts 27°
2026-04-26 16:00 68.62994 33.01093 3513 ft 194 kts
2026-04-26 16:00 68.64291 33.00465 3261 ft 189 kts 334°
2026-04-26 16:00 68.65403 32.98573 2992 ft 188 kts 326°
2026-04-26 16:00 68.66491 32.96585 2851 ft 188 kts 326°
2026-04-26 16:01 68.67580 32.94594 2680 ft 189 kts 326°
2026-04-26 16:01 68.68658 32.92623 2461 ft 182 kts 326°
2026-04-26 16:01 68.69640 32.90829 2222 ft 160 kts 326°
2026-04-26 16:01 68.70515 32.89226 1996 ft 144 kts 326°
2026-04-26 16:02 68.71332 32.87729 1818 ft 139 kts 326°
2026-04-26 16:02 68.72129 32.86266 1624 ft 137 kts 326°
2026-04-26 16:02 68.72916 32.84823 1410 ft 136 kts 326°
2026-04-26 16:02 68.73439 32.83861 1273 ft 136 kts 326°
2026-04-26 16:03 68.74496 32.81918 988 ft 137 kts 326°
2026-04-26 16:03 68.75291 32.80452 802 ft 137 kts 326°
2026-04-26 16:03 68.76083 32.78989 606 ft 137 kts 326°
2026-04-26 16:03 68.76876 32.77544 406 ft 137 kts 327°
2026-04-26 16:04 68.77667 32.76120 282 ft 128 kts 327°
2026-04-26 16:04 68.78286 32.74995 273 ft 80 kts 327°
2026-04-26 16:04 68.78602 32.74411 270 ft 31 kts 327°
2026-04-26 16:04 68.78678 32.74273 271 ft 15 kts 326°
2026-04-26 16:05 68.78817 32.74019 269 ft 27 kts 326°
2026-04-26 16:05 68.78970 32.73734 267 ft 26 kts 327°
2026-04-26 16:05 68.79105 32.73524 267 ft 18 kts 356°
2026-04-26 16:05 68.79196 32.73705 266 ft 16 kts 55°
2026-04-26 16:06 68.79168 32.73915 267 ft 12 kts 144°
2026-04-26 16:06 68.79097 32.74025 267 ft 11 kts 170°
2026-04-26 16:06 68.79030 32.73977 267 ft 9 kts 201°
2026-04-26 16:06 68.78953 32.73888 266 ft 17 kts 202°
2026-04-26 16:07 68.78850 32.73962 269 ft 19 kts 149°
2026-04-26 16:07 68.78722 32.74189 271 ft 22 kts 146°
2026-04-26 16:07 68.78560 32.74494 269 ft 34 kts 146°
2026-04-26 16:07 68.78364 32.74853 272 ft 31 kts 146°
2026-04-26 16:08 68.78302 32.75083 272 ft 15 kts 75°
2026-04-26 16:08 68.78339 32.75248 271 ft 15 kts 56°
2026-04-26 16:08 68.78354 32.75307 271 ft 0 kts 56°
2026-04-26 16:09 68.78361 32.75336 271 ft 7 kts 56°
2026-04-26 16:09 68.78402 32.75507 271 ft 11 kts 58°
2026-04-26 16:09 68.78381 32.75649 271 ft 7 kts 141°
2026-04-26 16:10 68.78375 32.75661 271 ft 0 kts 146°